[[{"header":{"parameterUnit":"m.s-1","parameterCategory":1,"la1":30.2992,"la2":30.254,"lo1":-89.0895,"lo2":-89.0443,"dy":0.0025,"dx":0.0025,"nx":19,"ny":19,"refTime":"2026-04-10T09:00:00:Z","depth":0,"parameterNumber":2,"parameterNumberName":"U-component_of_WINDS"},"data":[0,0,0,-3.5434,-3.5438,-3.5581,-3.5582,-3.5776,-3.5778,0,0,0,0,0,0,0,0,0,0,0,-3.5401,-3.5403,-3.5434,-3.5438,-3.5581,-3.5582,-3.5775,-3.5778,0,0,0,0,0,0,0,0,0,0,0,-3.54,-3.5402,-3.5404,-3.5439,-3.5581,-3.5582,-3.5775,-3.5662,0,0,0,0,0,0,0,0,0,0,-3.5521,-3.55,-3.5402,-3.5404,-3.5439,-3.5581,-3.5582,-3.5657,-3.5669,-3.5716,0,-3.5763,0,-3.5774,-3.5792,-3.5792,0,0,0,-3.543,-3.5489,-3.552,-3.5405,-3.5441,-3.5581,-3.5514,-3.5664,-3.5678,-3.5733,-3.5765,-3.5772,-3.5777,-3.5793,-3.5794,-3.6095,-3.6097,0,0,-3.5422,-3.5431,-3.551,-3.553,-3.5511,-3.551,-3.5519,-3.5672,-3.5707,-3.5766,-3.5776,-3.578,-3.5794,-3.5796,-3.6094,-3.6096,0,0,0,-3.5405,-3.5426,-3.5452,-3.5522,-3.5547,-3.5514,-3.5525,-3.57,-3.5708,-3.5778,-3.5782,-3.5795,-3.5798,-3.6092,-3.6095,-3.6191,0,0,0,-3.54,-3.5415,-3.5449,-3.5456,-3.5545,-3.5626,-3.5549,-3.5697,-3.5714,-3.5781,-3.5796,-3.58,-3.609,-3.6093,-3.6184,-3.6235,0,0,0,-3.5388,-3.5414,-3.5438,-3.5456,-3.5518,-3.5623,-3.564,-3.5701,-3.5717,-3.5792,-3.5801,-3.6089,-3.6093,-3.6178,-3.6225,-3.6317,0,0,0,-3.5378,-3.552,-3.544,-3.56,-3.5517,-3.5683,-3.5639,-3.5761,-3.5837,-3.5797,-3.609,-3.6094,-3.6176,-3.6218,-3.631,-3.6396,-3.6433,0,0,-3.5562,-3.5543,-3.5636,-3.5569,-3.5751,-3.566,-3.5856,-3.5916,-3.5914,-3.6034,-3.6042,-3.6186,-3.6224,-3.6315,-3.6635,-3.6665,0,0,0,-3.5697,-3.5765,-3.5811,-3.5886,-3.5937,-3.5984,-3.6014,-3.6036,-3.6139,-3.5979,-3.6244,-3.6266,-3.632,-3.636,-3.6385,-3.643,-3.6114,-3.6113,-3.6113,-3.5969,-3.5961,-3.6116,-3.6126,-3.6198,-3.6228,-3.6285,-3.632,-3.6288,-3.6352,-3.6387,-3.6583,-3.663,-3.6649,-3.6696,-3.6432,-3.6432,-3.6433,-3.6433,-3.6238,-3.6332,-3.629,-3.6424,-3.6414,-3.6526,-3.656,-3.6535,-3.6636,-3.6555,-3.6601,-3.6513,-3.6681,-3.6722,-3.644,-3.6439,-3.6438,-3.6437,-3.6437,-3.6415,-3.6459,-3.6485,-3.6592,-3.6675,-3.6679,-3.6779,-3.6765,-3.6753,-3.6799,-3.6835,-3.6833,-3.6829,-3.6817,-3.6818,-3.6819,-3.6819,-3.682,-3.682,-3.6588,-3.6615,-3.6702,-3.677,-3.6816,-3.6875,-3.6907,-3.6951,-3.6996,-3.6978,-3.6978,-3.694,-3.67,-3.664,-3.6831,-3.6829,-3.6827,-3.6826,-3.6826,-3.6863,-3.6799,-3.6934,-3.6981,-3.7059,-3.7142,-3.7124,-3.7215,-3.7249,-3.7298,-3.7251,-3.7076,-3.7054,-3.7035,-3.6985,-3.7253,-3.7253,-3.7253,-3.7253,-3.7012,-3.7001,-3.7136,-3.7211,-3.7283,-3.7281,-3.7432,-3.7458,-3.7474,-3.7494,-3.7454,-3.7386,-3.7367,-3.7356,-3.7329,-3.7282,-3.7621,-3.7621,-3.7622,-3.718,-3.7176,-3.7308,-3.7326,-3.7386,-3.7437,-3.7578,-3.7664,-3.7668,-3.7636,-3.751,-3.7494,-3.7385,-3.735,-3.7315,-3.7273,-3.7187,0,0]},{"header":{"parameterUnit":"m.s-1","parameterCategory":1,"la1":30.2992,"la2":30.254,"lo1":-89.0895,"lo2":-89.0443,"dy":0.0025,"dx":0.0025,"nx":19,"ny":19,"refTime":"2026-04-10T09:00:00:Z","depth":0,"parameterNumber":3,"parameterNumberName":"V-component_of_WINDS"},"data":[0,0,0,1.9164,1.9165,1.9214,1.9214,1.9286,1.9287,0,0,0,0,0,0,0,0,0,0,0,1.9157,1.9158,1.9164,1.9165,1.9214,1.9214,1.9286,1.9287,0,0,0,0,0,0,0,0,0,0,0,1.9157,1.9158,1.9159,1.9165,1.9214,1.9214,1.9286,1.9245,0,0,0,0,0,0,0,0,0,0,1.9196,1.9198,1.9158,1.9159,1.9166,1.9214,1.9214,1.9243,1.9248,1.9269,0,1.9292,0,1.9291,1.9293,1.9293,0,0,0,1.9159,1.9194,1.9201,1.9159,1.9166,1.9214,1.919,1.9246,1.9251,1.9276,1.9293,1.9295,1.9292,1.9293,1.9294,1.9441,1.9442,0,0,1.9156,1.917,1.9197,1.9204,1.9199,1.9189,1.9192,1.9249,1.9268,1.9293,1.9296,1.9293,1.9294,1.9295,1.944,1.9441,0,0,0,1.9153,1.9168,1.9173,1.9202,1.921,1.919,1.9194,1.9265,1.9265,1.9297,1.9294,1.9294,1.9295,1.9439,1.9441,1.9503,0,0,0,1.9151,1.9166,1.9172,1.9181,1.9209,1.9238,1.9209,1.9262,1.9268,1.9294,1.9294,1.9296,1.9438,1.944,1.9499,1.953,0,0,0,1.9151,1.9166,1.9176,1.9181,1.9203,1.9237,1.9241,1.9263,1.9266,1.9293,1.9296,1.9437,1.944,1.9495,1.9524,1.9572,0,0,0,1.9155,1.923,1.9177,1.9259,1.9203,1.9276,1.924,1.9294,1.9324,1.9295,1.9438,1.9441,1.9494,1.952,1.9569,1.9616,1.9637,0,0,1.9257,1.9243,1.929,1.9244,1.933,1.9267,1.9362,1.9376,1.9366,1.9416,1.942,1.95,1.9523,1.9571,1.975,1.9767,0,0,0,1.9326,1.936,1.938,1.9411,1.9425,1.9439,1.9437,1.9443,1.9485,1.9395,1.953,1.9544,1.9572,1.9593,1.9608,1.963,1.9451,1.9451,1.9451,1.9489,1.9473,1.9549,1.9539,1.9568,1.9567,1.9589,1.9596,1.9569,1.9602,1.9616,1.9727,1.9753,1.9764,1.9788,1.964,1.964,1.9641,1.9641,1.9636,1.9681,1.9645,1.9707,1.9688,1.9739,1.974,1.972,1.9764,1.9715,1.9738,1.9686,1.9783,1.9803,1.9645,1.9645,1.9644,1.9644,1.9643,1.974,1.9759,1.9765,1.9808,1.9842,1.9828,1.9872,1.9853,1.9836,1.9859,1.9872,1.9871,1.9868,1.9867,1.9867,1.9868,1.9868,1.9868,1.9869,1.9846,1.9851,1.9891,1.9912,1.9929,1.9949,1.9948,1.9964,1.9976,1.9959,1.9959,1.993,1.9796,1.9763,1.9874,1.9873,1.9873,1.9872,1.9872,2.0001,1.9963,2.0025,2.0042,2.0065,2.01,2.0076,2.011,2.012,2.0142,2.0107,2.0012,1.9996,1.9984,1.9956,2.0111,2.0111,2.0111,2.0111,2.0089,2.0079,2.0138,2.0167,2.0193,2.0177,2.0247,2.0246,2.024,2.0245,2.0219,2.0181,2.017,2.016,2.0145,2.0119,2.0311,2.0312,2.0312,2.0183,2.0175,2.0238,2.0232,2.0249,2.0263,2.0327,2.036,2.0345,2.032,2.0248,2.024,2.0177,2.0158,2.0131,2.0108,2.0059,0,0]}]]